sat.trackr.live / text

‹ back to catalog

STARLINK-37306

NORAD 68680 · 2026-077U

PAYLOAD ACTIVE UNKNOWN

§ Identity

Operator
Country
US
Launch date
2026-04-11
Launch site
AFWTR
Launch vehicle
Mass (kg)
RCS (m²)

Purposes: comms

External: N2YO · Heavens-Above · Gunter

§ Orbital elements

Epoch: 2026-05-25T02:38:07.302336Z

Period
93.91 min
Inclination
97.2873°
Eccentricity
0.0002096
Mean motion
15.33453549 rev/d
Perigee alt
464.1 km
Apogee alt
467.0 km
Semi-major
6,843.7 km
B*
2.7168e-4
RAAN
16.7468°
Arg perigee
103.1277°
Mean anomaly
257.0200°
Rev number
687

§ Raw data

STARLINK-373061 68680U 26077U   26145.10980674  .00008709  00000+0  27168-3 0  99932 68680  97.2873  16.7468 0002096 103.1277 257.0200 15.33453549  6875

JSON: /api/v1/satellites/68680 · /tle

For live sub-satellite position, see the globe view (requires WebGL).

§ Visibility from observer

Set your observer location to see the next 7 days of passes ≥ 10°. The values pass through the URL so the page stays shareable.

No JS? Fill the form by hand. The geolocation button needs JavaScript.